Tracking 18957 objects as of 24-Jan-2018
HD Live streaming from Space Station
objects crossing your sky now

FENGYUN 1C DEB

Track FENGYUN 1C DEB now!
10-day predictions


NORAD ID: 30246
Int'l Code: 1999-025XF
Perigee: 852.1 km
Apogee: 1,413.5 km
Inclination: 98.7 °
Period: 107.8 minutes
Semi major axis: 7503 km
RCS: 0.0544 m2 (small)
Launch date: May 10, 1999
Source: People's Republic of China (PRC)
Launch site: Taiyaun Space Center, China (TSC)

Note: This is SATELLITE DEBRIS
aabbcc
Your satellite tracking list
Your tracking list is empty




NASA's NSSDC Master Catalog

Two Line Element Set (TLE):
1 30246U 99025XF  18023.02151274 -.00000009  00000-0  29693-4 0  9999
2 30246  98.6514 192.7019 0374072 124.8805 352.3279 13.35622681536822
Source of the keplerian elements: AFSPC